Regional Weather Roundup
Issued by NWS Mobile, AL

Home | Current Version | Previous Version | Text Only | Print | Product List | Glossary On
Versions: 1 2 3 4 5 6 7 8 9 10 11 12 13 14 15 16 17 18 19 20 21 22 23 24 25 26 27 28 29 30 31 32 33 34 35 36 37 38 39 40 41 42 43 44 45 46 47 48 49 50
000
ASUS44 KMOB 030410
RWRMOB
REGIONAL WEATHER ROUNDUP
NATIONAL WEATHER SERVICE MOBILE AL
1000 PM CST MON MAR 02 2015

NOTE: "FAIR" INDICATES FEW OR NO CLOUDS BELOW 12,000 FEET WITH NO
      SIGNIFICANT WEATHER AND/OR OBSTRUCTIONS TO VISIBILITY.

  * THESE STATIONS ARE PART OF THE UNIVERSITY OF SOUTH ALABAMA
    MESONET AND ARE NOT UNDER NWS OR FAA QUALITY CONTROL.

ALZ061>064-030500-
COASTAL ALABAMA

CITY           SKY/WX    TMP DP  RH WIND       PRES   REMARKS
MOBILE REG APT RAIN      60  60 100 E6        30.23F VSB 1
BROOKLEY FIELD FOG       63  62  97 CALM      30.25F VSB 1
USA CAMPUS*      N/A     63  63 100 CALM      30.24S
DOG RIVER*     NOT AVBL


CITY           SKY/WX    TMP DP  RH WIND       PRES   REMARKS
MOUNT VERNON*    N/A     57  55  94 CALM      30.25S
SARALAND*      NOT AVBL
BAY MINETTE*   NOT AVBL
LOXLEY*          N/A     64  63  94 CALM      30.24S
ROBERTSDALE*     N/A     64  64 100 SE3       30.23S
FAIRHOPE*      NOT AVBL
ELBERTA*         N/A     64  64 100 CALM      30.23R
FOLEY*         NOT AVBL
GRAND BAY*       N/A     64  64 100 N2        30.22S
DAUPHIN ISLND* NOT AVBL
BON SCOUR NWR* NOT AVBL
GULF SHORES    FOG       64  64 100 CALM      30.24R VSB 3/4

$$

ALZ051>060-030500-
INTERIOR SOUTHWEST AND SOUTH CENTRAL ALABAMA

CITY           SKY/WX    TMP DP  RH WIND       PRES   REMARKS
GREENVILLE     CLOUDY    61  57  88 CALM      30.24  FOG
EVERGREEN      CLOUDY    60  59  96 CALM      30.25S FOG
CASTLEBERRY*   NOT AVBL
ATMORE*        NOT AVBL
DIXIE*         NOT AVBL
ANDALUSIA/OPP  CLOUDY    64  60  87 CALM      30.25  FOG
ANDALUSIA*     NOT AVBL
FLORALA APT    CLOUDY    64  60  87 CALM      30.26R
FLORALA*       NOT AVBL

$$

FLZ001>006-030500-
WESTERN FLORIDA PANHANDLE

CITY           SKY/WX    TMP DP  RH WIND       PRES   REMARKS
PENSACOLA      FOG       63  63 100 CALM      30.25R VSB 1
NAS PENSACOLA  FOG       63  63 100 CALM      30.24  VSB 1/2
MILTON         CLOUDY    64  63  96 CALM      30.25  FOG
WHTNG S FIELD  CLOUDY    67  63  87 CALM      30.25R FOG


CITY           SKY/WX    TMP DP  RH WIND       PRES   REMARKS
WALNUT HILL*   NOT AVBL
JAY*           NOT AVBL
DUKE FIELD     CLOUDY    59  57  94 CALM      30.24R FOG
CRESTVIEW      FAIR      58  57  97 CALM      30.26R
VALPARAISO     FOG       62  62  97 N2        30.24  VSB 1/4
DESTIN         FOG       63  63 100 CALM      30.24R VSB 1

$$

MSZ076-079-030500-
INTERIOR SOUTHEAST MISSISSIPPI

CITY           SKY/WX    TMP DP  RH WIND       PRES   REMARKS
LEAKESVILLE*     N/A    N/A N/A N/A E5        30.23F
AGRICOLA*      NOT AVBL

$$

MARINE OBSERVATIONS

STATION/POSITION TIME  TEMP    WIND        PRES    WAVE
                       AIR SEA DIR/SP/G            HT/PER
                 (UTC) (F)     (DEG/KT/KT) (MB)    (FT/S)
E DAUPHIN ISLAND NOT AVBL
12 S ORANGE BCH  NOT AVBL

$$

SELECTED LOCATIONS ACROSS THE REGION

CITY           SKY/WX    TMP DP  RH WIND       PRES   REMARKS
NEW ORLEANS    CLOUDY    66  64  93 CALM      30.20S FOG
GULFPORT       FOG       64  63  96 NE3       30.21S VSB 1/4
PASCAGOULA AP  FOG       64  63  96 CALM      30.23S VSB 1/4
PASCAGOULA*    NOT AVBL
HATTIESBURG    FOG       61  61 100 E3        30.23S VSB 3/4
LAUREL         CLOUDY    61  57  88 CALM      30.23S VSB 1/2
MERIDIAN       CLOUDY    52  51  97 NE5       30.24S FOG
JACKSON        FOG       53  52  96 CALM      30.23S VSB 1/2
MONTGOMERY     CLOUDY    58  56  93 CALM      30.25F FOG
TROY           CLOUDY    60  60 100 CALM      30.25F FOG
KINSTON*       NOT AVBL
GENEVA*        NOT AVBL
ASHFORD*       NOT AVBL
DOTHAN         MOCLDY    61  60  97 CALM      30.28S
PANAMA CITY    FAIR      59  57  94 CALM      30.23F FOG

$$



USA.gov is the U.S. government's official web portal to all federal, state and local government web resources and services.